Change the Weather History Date:

Wednesday, June 25, 2014

  Actual Average Record
Temperature  
Mean Temperature 68 °F -  
Max Temperature 75 °F 77 °F 93 °F (1999)
Min Temperature 60 °F 62 °F 44 °F (2011)
Cooling Degree Days 2    
Growing Degree Days 18 (Base 50)    
Moisture  
Dew Point 65 °F    
Average Humidity 94    
Maximum Humidity 100    
Minimum Humidity 69    
Precipitation  
Precipitation 0.19 in - - ()
Sea Level Pressure  
Sea Level Pressure 29.99 in    
Wind  
Wind Speed 3 mph (ENE)    
Max Wind Speed 13 mph    
Max Gust Speed -    
Visibility 9 miles    
Events Rain , Thunderstorm    
Averages and records for this station are not official NWS values.
T = Trace of Precipitation, MM = Missing Value Source: NWS Daily Summary

Daily Weather History Graph

Daily Weather History Graph

Search for Another Location

Airport or City:

Trip Planner

Search our weather history database for the weather conditions in past years. The results will help you decide how hot, cold, wet, or windy it might be!

Date:

Astronomy

Jun. 25, 2014 Rise Set
Actual Time 5:19 AM CDT 8:47 PM CDT
Civil Twilight 4:43 AM CDT 9:23 PM CDT
Nautical Twilight 3:55 AM CDT 10:11 PM CDT
Astronomical Twilight 2:54 AM CDT 11:12 PM CDT
Moon 4:14 AM CDT (6/25) 7:16 PM CDT (6/25)
Length of Visible Light 16h 40m
Length of Day
15h 28m
Waning Crescent, 3% of the Moon is Illuminated
Jun 25
Waning Crescent
Jun 27
New
Jul 5
First Quarter
Jul 12
Full
Jul 18
Last Quarter

Hourly Weather History & Observations

Time (CDT) Temp. Dew Point Humidity Pressure Visibility Wind Dir Wind Speed Gust Speed Precip Events Conditions
12:58 AM 62.4 °F 62.4 °F 100% 29.95 in 10.0 mi West 4.6 mph - N/A   Clear
1:58 AM 61.7 °F 61.7 °F 100% 29.95 in 10.0 mi Calm Calm - N/A   Clear
2:03 AM 60.8 °F 60.8 °F 100% 29.95 in 5.0 mi Calm Calm - N/A   Clear
2:13 AM 60.8 °F 60.8 °F 100% 29.95 in 10.0 mi East 3.5 mph - N/A   Partly Cloudy
2:50 AM 62.6 °F 62.6 °F 100% 29.95 in 10.0 mi ENE 2.3 mph - N/A   Partly Cloudy
2:58 AM 62.1 °F 62.1 °F 100% 29.95 in 10.0 mi NE 2.3 mph - N/A   Scattered Clouds
3:03 AM 62.6 °F 62.6 °F 100% 29.95 in 10.0 mi Calm Calm - N/A   Mostly Cloudy
3:08 AM 62.6 °F 62.6 °F 100% 29.95 in 10.0 mi Calm Calm - N/A   Scattered Clouds
3:28 AM 62.6 °F 62.6 °F 100% 29.95 in 8.0 mi Calm Calm - N/A   Scattered Clouds
3:33 AM 60.8 °F 60.8 °F 100% 29.95 in 2.5 mi East 2.3 mph - N/A   Scattered Clouds
3:38 AM 60.8 °F 60.8 °F 100% 29.95 in 1.8 mi Calm Calm - N/A   Mostly Cloudy
3:43 AM 60.8 °F 60.8 °F 100% 29.96 in 3.0 mi Calm Calm - N/A   Mostly Cloudy
3:48 AM 60.8 °F 60.8 °F 100% 29.96 in 10.0 mi Calm Calm - N/A   Mostly Cloudy
3:58 AM 61.7 °F 61.7 °F 100% 29.96 in 10.0 mi Calm Calm - N/A   Overcast
4:23 AM 62.6 °F 62.6 °F 100% 29.96 in 9.0 mi Calm Calm - N/A   Overcast
5:19 AM 64.4 °F 64.4 °F 100% 29.97 in - ENE 3.5 mph - N/A   Unknown
5:44 AM 64.4 °F 64.4 °F 100% 29.98 in 10.0 mi East 5.8 mph - N/A   Overcast
5:58 AM 64.8 °F 64.8 °F 100% 29.98 in 10.0 mi East 4.6 mph - N/A   Overcast
6:58 AM 66.2 °F 66.2 °F 100% 30.00 in 10.0 mi ENE 4.6 mph - N/A   Overcast
7:58 AM 68.0 °F 68.0 °F 100% 30.01 in 10.0 mi East 4.6 mph - N/A   Overcast
8:33 AM 69.8 °F 68.0 °F 94% 30.00 in 10.0 mi ESE 5.8 mph - N/A   Mostly Cloudy
8:58 AM 68.0 °F 68.0 °F 100% 30.01 in 10.0 mi ESE 5.8 mph - N/A   Mostly Cloudy
9:58 AM 69.8 °F 68.0 °F 94% 30.02 in 10.0 mi NNE 5.8 mph - N/A   Mostly Cloudy
10:58 AM 71.6 °F 68.0 °F 88% 30.02 in 10.0 mi NNE 5.8 mph - N/A Thunderstorm Mostly Cloudy
11:08 AM 71.6 °F 68.0 °F 88% 30.02 in 10.0 mi NE 5.8 mph - N/A   Scattered Clouds
11:13 AM 71.6 °F 68.0 °F 88% 30.02 in 10.0 mi NNE 8.1 mph - N/A   Mostly Cloudy
11:18 AM 71.6 °F 68.0 °F 88% 30.02 in 10.0 mi NE 4.6 mph - N/A   Mostly Cloudy
11:58 AM 71.6 °F 68.0 °F 88% 30.02 in 10.0 mi NE 9.2 mph - N/A   Mostly Cloudy
12:23 PM 71.6 °F 68.0 °F 88% 30.02 in 4.0 mi NE 10.4 mph - N/A Rain Light Rain Showers
12:31 PM 69.8 °F 68.0 °F 94% 30.02 in 10.0 mi ENE 12.7 mph - N/A Rain , Thunderstorm Light Thunderstorms and Rain
12:58 PM 68.0 °F 68.0 °F 100% 30.03 in 10.0 mi East 6.9 mph - N/A   Mostly Cloudy
1:58 PM 69.8 °F 68.0 °F 94% 30.02 in 10.0 mi ENE 5.8 mph - N/A   Mostly Cloudy
2:58 PM 73.4 °F 66.2 °F 78% 30.02 in 10.0 mi East 5.8 mph - N/A   Mostly Cloudy
3:58 PM 75.2 °F 66.2 °F 73% 30.01 in 10.0 mi Variable 1.2 mph - N/A   Mostly Cloudy
4:55 PM 71.6 °F 64.4 °F 78% 30.01 in 10.0 mi ESE 6.9 mph - N/A   Mostly Cloudy
4:58 PM 73.4 °F 66.2 °F 78% 30.01 in 10.0 mi SE 6.9 mph - N/A   Mostly Cloudy
5:58 PM 75.2 °F 64.4 °F 69% 30.00 in 10.0 mi SE 5.8 mph - N/A   Mostly Cloudy
6:58 PM 73.4 °F 64.4 °F 73% 30.00 in 10.0 mi SE 3.5 mph - N/A   Mostly Cloudy
7:39 PM 69.8 °F 68.0 °F 94% 30.01 in 10.0 mi ENE 4.6 mph - N/A Rain Light Rain Showers
7:58 PM 68.0 °F 68.0 °F 100% 30.01 in 6.0 mi NNE 8.1 mph - N/A Rain Light Rain
8:58 PM 66.2 °F 66.2 °F 100% 30.03 in 4.0 mi ENE 4.6 mph - N/A Rain Light Rain Showers
9:18 PM 66.2 °F 66.2 °F 100% 30.03 in 10.0 mi ESE 8.1 mph - N/A   Mostly Cloudy
9:58 PM 66.2 °F 66.2 °F 100% 30.04 in 10.0 mi SE 4.6 mph - N/A   Mostly Cloudy
10:58 PM 64.4 °F 64.4 °F 100% 30.04 in 10.0 mi ESE 4.6 mph - N/A   Scattered Clouds